DHK110 TTCP-SOCA

Flight info

Callsign DHK110
Flight time 1h 34m
Altitude 41000
Route TAB DCT UMREM DCT BUXEX DCT KUKOV DCT CYR
Aircraft B738/M-SDE2E3FGHIRWXY/LB1

Departure

Time 2026-04-13 21:46
Airport A.N.R. Robinson International Airport (TTCP)

Arrival

Time 2026-04-13 23:20
Airport Cayenne – Félix Eboué Airport (SOCA)
Time Latitude Longitude Altitude Speed Heading
2026-04-13 21:31 11.15192 -60.84004 35 ft 0 kts
2026-04-13 21:40 11.15186 -60.84004 35 ft 4 kts 359°
2026-04-13 21:40 11.15159 -60.84002 34 ft 4 kts 349°
2026-04-13 21:40 11.15133 -60.83994 34 ft 4 kts 329°
2026-04-13 21:41 11.15117 -60.83978 31 ft 3 kts 279°
2026-04-13 21:41 11.15116 -60.83975 31 ft 1 kts 276°
2026-04-13 21:43 11.15118 -60.83992 33 ft 5 kts 276°
2026-04-13 21:43 11.15122 -60.84041 32 ft 9 kts 275°
2026-04-13 21:44 11.15114 -60.84113 33 ft 12 kts 241°
2026-04-13 21:44 11.15051 -60.84162 33 ft 7 kts 163°
2026-04-13 21:44 11.15038 -60.84143 33 ft 4 kts 117°
2026-04-13 21:44 11.15031 -60.84107 33 ft 4 kts 94°
2026-04-13 21:45 11.15031 -60.84106 33 ft 0 kts 94°
2026-04-13 21:45 11.15029 -60.84084 33 ft 13 kts 94°
2026-04-13 21:45 11.15003 -60.83724 34 ft 88 kts 94°
2026-04-13 21:45 11.14944 -60.82893 37 ft 145 kts 95°
2026-04-13 21:46 11.14874 -60.81802 475 ft 154 kts 94°
2026-04-13 21:46 11.14788 -60.80765 1277 ft 142 kts 108°
2026-04-13 21:46 11.14129 -60.80033 1839 ft 153 kts 154°
2026-04-13 21:46 11.13134 -60.79519 2342 ft 174 kts 134°
2026-04-13 21:47 11.12300 -60.78536 2923 ft 187 kts 128°
2026-04-13 21:47 11.11492 -60.77567 3956 ft 184 kts 129°
2026-04-13 21:47 11.10610 -60.76506 4333 ft 214 kts 129°
2026-04-13 21:47 11.09567 -60.75243 4591 ft 247 kts 129°
2026-04-13 21:48 11.08444 -60.73876 5321 ft 257 kts 129°
2026-04-13 21:48 11.07282 -60.72469 6153 ft 263 kts 128°
2026-04-13 21:48 11.06097 -60.71036 6996 ft 268 kts 129°
2026-04-13 21:48 11.04875 -60.69560 7756 ft 277 kts 129°
2026-04-13 21:49 11.03619 -60.68044 8595 ft 284 kts 129°
2026-04-13 21:49 11.02341 -60.66503 9568 ft 287 kts 129°
2026-04-13 21:49 11.01030 -60.64923 10299 ft 300 kts 130°
2026-04-13 21:49 10.99621 -60.63225 10536 ft 329 kts 130°
2026-04-13 21:50 10.98099 -60.61392 10968 ft 346 kts 130°
2026-04-13 21:50 10.96532 -60.59504 11681 ft 352 kts 130°
2026-04-13 21:50 10.94953 -60.57603 12619 ft 352 kts 131°
2026-04-13 21:50 10.93362 -60.55688 13425 ft 358 kts 131°
2026-04-13 21:51 10.91741 -60.53737 14193 ft 362 kts 132°
2026-04-13 21:51 10.90102 -60.51765 14884 ft 370 kts 133°
2026-04-13 21:51 10.88421 -60.49742 15507 ft 379 kts 133°
2026-04-13 21:51 10.86702 -60.47676 16187 ft 386 kts 132°
2026-04-13 21:52 10.84960 -60.45581 16920 ft 390 kts 132°
2026-04-13 21:52 10.83194 -60.43456 17638 ft 396 kts 132°
2026-04-13 21:52 10.81403 -60.41302 18297 ft 402 kts 132°
2026-04-13 21:52 10.79587 -60.39117 18886 ft 407 kts 132°
2026-04-13 21:53 10.77755 -60.36914 19523 ft 410 kts 132°
2026-04-13 21:53 10.75908 -60.34693 20153 ft 413 kts 132°
2026-04-13 21:53 10.74042 -60.32449 20759 ft 417 kts 132°
2026-04-13 21:53 10.72162 -60.30191 21343 ft 421 kts 132°
2026-04-13 21:54 10.70264 -60.27910 21914 ft 424 kts 133°
2026-04-13 21:54 10.68373 -60.25639 22464 ft 428 kts 133°
2026-04-13 21:54 10.66417 -60.23291 23014 ft 432 kts 133°
2026-04-13 21:54 10.64502 -60.20992 23530 ft 435 kts 133°
2026-04-13 21:55 10.62542 -60.18640 23951 ft 438 kts 133°
2026-04-13 21:55 10.60566 -60.16269 24392 ft 441 kts 133°
2026-04-13 21:55 10.58585 -60.13891 24828 ft 443 kts 133°
2026-04-13 21:55 10.56585 -60.11492 25246 ft 446 kts 133°
2026-04-13 21:56 10.54579 -60.09087 25662 ft 449 kts 133°
2026-04-13 21:56 10.52609 -60.06725 26059 ft 452 kts 133°
2026-04-13 21:56 10.50519 -60.04219 26469 ft 454 kts 133°
2026-04-13 21:56 10.48470 -60.01765 26860 ft 457 kts 133°
2026-04-13 21:57 10.46415 -59.99302 27246 ft 460 kts 133°
2026-04-13 21:57 10.44339 -59.96816 27626 ft 462 kts 133°
2026-04-13 21:57 10.42261 -59.94326 27993 ft 465 kts 133°
2026-04-13 21:57 10.40161 -59.91813 28353 ft 467 kts 133°
2026-04-13 21:58 10.38051 -59.89287 28718 ft 470 kts 133°
2026-04-13 21:58 10.35930 -59.86748 29033 ft 473 kts 133°
2026-04-13 21:58 10.33796 -59.84195 29351 ft 476 kts 133°
2026-04-13 21:58 10.31647 -59.81625 29673 ft 478 kts 133°
2026-04-13 21:59 10.29488 -59.79043 29988 ft 481 kts 133°
2026-04-13 21:59 10.27320 -59.76450 30255 ft 483 kts 133°
2026-04-13 21:59 10.25140 -59.73846 30532 ft 485 kts 133°
2026-04-13 21:59 10.22956 -59.71235 30799 ft 486 kts 133°
2026-04-13 22:00 10.20763 -59.68616 31059 ft 488 kts 133°
2026-04-13 22:00 10.18560 -59.65984 31312 ft 490 kts 133°
2026-04-13 22:00 10.16349 -59.63343 31557 ft 492 kts 133°
2026-04-13 22:00 10.14133 -59.60697 31854 ft 492 kts 134°
2026-04-13 22:01 10.11919 -59.58053 32229 ft 491 kts 134°
2026-04-13 22:01 10.09712 -59.55418 32632 ft 489 kts 134°
2026-04-13 22:01 10.07513 -59.52793 33071 ft 487 kts 134°
2026-04-13 22:01 10.05324 -59.50181 33481 ft 486 kts 134°
2026-04-13 22:02 10.03138 -59.47574 33862 ft 485 kts 134°
2026-04-13 22:02 10.00953 -59.44968 34208 ft 485 kts 134°
2026-04-13 22:02 9.98770 -59.42367 34544 ft 484 kts 134°
2026-04-13 22:02 9.96584 -59.39762 34863 ft 484 kts 134°
2026-04-13 22:03 9.94432 -59.37198 35183 ft 484 kts 134°
2026-04-13 22:03 9.92249 -59.34598 35525 ft 484 kts 134°
2026-04-13 22:03 9.90069 -59.32002 35869 ft 483 kts 134°
2026-04-13 22:03 9.87889 -59.29406 36176 ft 483 kts 134°
2026-04-13 22:04 9.85709 -59.26811 36494 ft 483 kts 134°
2026-04-13 22:04 9.83529 -59.24216 36834 ft 483 kts 134°
2026-04-13 22:04 9.81352 -59.21625 37172 ft 483 kts 134°
2026-04-13 22:04 9.79176 -59.19037 37488 ft 483 kts 134°
2026-04-13 22:05 9.76999 -59.16448 37809 ft 482 kts 134°
2026-04-13 22:05 9.74822 -59.13860 38137 ft 482 kts 134°
2026-04-13 22:05 9.73380 -59.12145 38352 ft 482 kts 134°
2026-04-13 22:05 9.71206 -59.09561 38685 ft 481 kts 134°
2026-04-13 22:06 9.69041 -59.06987 38978 ft 479 kts 134°
2026-04-13 22:06 9.66880 -59.04419 39255 ft 479 kts 134°
2026-04-13 22:06 9.64718 -59.01852 39502 ft 479 kts 134°
2026-04-13 22:06 9.62559 -58.99288 39759 ft 478 kts 134°
2026-04-13 22:07 9.60403 -58.96727 40032 ft 477 kts 134°
2026-04-13 22:07 9.58251 -58.94173 40307 ft 476 kts 134°
2026-04-13 22:07 9.56103 -58.91624 40563 ft 476 kts 134°
2026-04-13 22:07 9.53957 -58.89076 40806 ft 475 kts 134°
2026-04-13 22:08 9.51807 -58.86527 40922 ft 477 kts 134°
2026-04-13 22:08 9.47478 -58.81395 40921 ft 479 kts 134°
2026-04-13 22:09 9.43168 -58.76283 40920 ft 474 kts 134°
2026-04-13 22:09 9.38903 -58.71227 40921 ft 471 kts 134°
2026-04-13 22:10 9.34655 -58.66196 40915 ft 469 kts 134°
2026-04-13 22:10 9.30423 -58.61186 40917 ft 468 kts 134°
2026-04-13 22:11 9.26189 -58.56176 40918 ft 469 kts 134°
2026-04-13 22:11 9.21945 -58.51156 40917 ft 470 kts 134°
2026-04-13 22:12 9.17701 -58.46137 40922 ft 471 kts 134°
2026-04-13 22:12 9.13428 -58.41087 40918 ft 473 kts 134°
2026-04-13 22:13 9.09145 -58.36025 40919 ft 475 kts 134°
2026-04-13 22:13 9.04846 -58.30947 40926 ft 476 kts 134°
2026-04-13 22:14 9.00534 -58.25856 40909 ft 476 kts 134°
2026-04-13 22:14 8.96224 -58.20770 40909 ft 476 kts 134°
2026-04-13 22:15 8.91916 -58.15687 40914 ft 475 kts 134°
2026-04-13 22:15 8.87615 -58.10614 40907 ft 475 kts 134°
2026-04-13 22:16 8.83323 -58.05555 40910 ft 474 kts 134°
2026-04-13 22:16 8.79040 -58.00507 40910 ft 473 kts 134°
2026-04-13 22:17 8.74762 -57.95469 40916 ft 472 kts 134°
2026-04-13 22:17 8.70490 -57.90438 40911 ft 472 kts 134°
2026-04-13 22:18 8.66222 -57.85416 40904 ft 471 kts 134°
2026-04-13 22:18 8.61963 -57.80405 40908 ft 470 kts 134°
2026-04-13 22:19 8.57737 -57.75434 40915 ft 470 kts 134°
2026-04-13 22:19 8.53486 -57.70437 40908 ft 469 kts 134°
2026-04-13 22:20 8.49237 -57.65443 40914 ft 469 kts 134°
2026-04-13 22:20 8.44993 -57.60458 40912 ft 468 kts 134°
2026-04-13 22:21 8.40745 -57.55469 40912 ft 468 kts 134°
2026-04-13 22:21 8.36498 -57.50484 40921 ft 469 kts 134°
2026-04-13 22:22 8.32246 -57.45494 40909 ft 469 kts 134°
2026-04-13 22:22 8.27996 -57.40508 40911 ft 469 kts 134°
2026-04-13 22:23 8.23747 -57.35525 40910 ft 469 kts 134°
2026-04-13 22:23 8.19490 -57.30535 40908 ft 469 kts 134°
2026-04-13 22:24 8.15234 -57.25547 40911 ft 469 kts 134°
2026-04-13 22:24 8.10982 -57.20566 40908 ft 469 kts 134°
2026-04-13 22:25 8.06722 -57.15577 40911 ft 469 kts 134°
2026-04-13 22:25 8.02460 -57.10587 40906 ft 470 kts 134°
2026-04-13 22:26 7.98198 -57.05599 40909 ft 469 kts 134°
2026-04-13 22:26 7.94057 -57.00518 40907 ft 472 kts 126°
2026-04-13 22:27 7.91169 -56.94550 40916 ft 476 kts 113°
2026-04-13 22:27 7.88805 -56.88318 40904 ft 476 kts 113°
2026-04-13 22:28 7.86437 -56.82084 40903 ft 476 kts 113°
2026-04-13 22:28 7.84032 -56.75873 40912 ft 475 kts 114°
2026-04-13 22:29 7.81606 -56.69669 40908 ft 475 kts 114°
2026-04-13 22:29 7.79176 -56.63469 40909 ft 475 kts 114°
2026-04-13 22:30 7.76748 -56.57273 40915 ft 475 kts 114°
2026-04-13 22:30 7.74317 -56.51071 40920 ft 476 kts 114°
2026-04-13 22:31 7.71902 -56.44910 40907 ft 476 kts 114°
2026-04-13 22:31 7.69474 -56.38717 40913 ft 476 kts 114°
2026-04-13 22:32 7.67041 -56.32518 40912 ft 476 kts 114°
2026-04-13 22:32 7.64609 -56.26322 40914 ft 476 kts 114°
2026-04-13 22:33 7.62175 -56.20125 40913 ft 475 kts 114°
2026-04-13 22:33 7.59741 -56.13930 40913 ft 475 kts 114°
2026-04-13 22:34 7.54878 -56.01562 40906 ft 475 kts 114°
2026-04-13 22:35 7.52469 -55.95440 40909 ft 474 kts 114°
2026-04-13 22:35 7.50019 -55.89216 40910 ft 474 kts 114°
2026-04-13 22:36 7.47590 -55.83050 40912 ft 474 kts 114°
2026-04-13 22:36 7.45158 -55.76877 40914 ft 474 kts 114°
2026-04-13 22:37 7.42744 -55.70754 40912 ft 474 kts 114°
2026-04-13 22:37 7.40311 -55.64586 40912 ft 474 kts 114°
2026-04-13 22:38 7.37878 -55.58419 40909 ft 474 kts 114°
2026-04-13 22:38 7.35445 -55.52257 40909 ft 474 kts 114°
2026-04-13 22:39 7.33010 -55.46091 40912 ft 474 kts 114°
2026-04-13 22:39 7.30574 -55.39925 40909 ft 474 kts 114°
2026-04-13 22:40 7.28139 -55.33765 40913 ft 474 kts 114°
2026-04-13 22:40 7.25699 -55.27596 40912 ft 474 kts 114°
2026-04-13 22:41 7.23260 -55.21431 40913 ft 474 kts 114°
2026-04-13 22:41 7.20817 -55.15260 40912 ft 474 kts 114°
2026-04-13 22:42 7.18378 -55.09102 40913 ft 474 kts 114°
2026-04-13 22:42 7.15936 -55.02937 40903 ft 474 kts 114°
2026-04-13 22:43 7.13495 -54.96778 40917 ft 474 kts 114°
2026-04-13 22:43 7.11055 -54.90626 40913 ft 473 kts 114°
2026-04-13 22:44 7.08619 -54.84484 40913 ft 473 kts 114°
2026-04-13 22:44 7.06181 -54.78344 40906 ft 472 kts 115°
2026-04-13 22:45 7.02797 -54.72795 40912 ft 463 kts 134°
2026-04-13 22:45 6.98051 -54.68495 40915 ft 459 kts 143°
2026-04-13 22:46 6.93103 -54.64437 40910 ft 459 kts 144°
2026-04-13 22:46 6.88179 -54.60364 40912 ft 459 kts 143°
2026-04-13 22:47 6.83273 -54.56264 40910 ft 459 kts 143°
2026-04-13 22:47 6.78368 -54.52150 40914 ft 459 kts 143°
2026-04-13 22:48 6.73503 -54.48068 40916 ft 459 kts 143°
2026-04-13 22:48 6.68599 -54.43956 40912 ft 459 kts 143°
2026-04-13 22:49 6.63694 -54.39845 40912 ft 459 kts 143°
2026-04-13 22:49 6.58797 -54.35742 40912 ft 459 kts 143°
2026-04-13 22:50 6.53893 -54.31635 40911 ft 459 kts 143°
2026-04-13 22:50 6.48996 -54.27534 40909 ft 458 kts 143°
2026-04-13 22:51 6.44101 -54.23437 40910 ft 458 kts 143°
2026-04-13 22:51 6.39211 -54.19344 40912 ft 458 kts 143°
2026-04-13 22:52 6.35143 -54.15940 40913 ft 457 kts 143°
2026-04-13 22:52 6.30256 -54.11852 40911 ft 457 kts 143°
2026-04-13 22:53 6.25370 -54.07766 40911 ft 457 kts 143°
2026-04-13 22:53 6.20492 -54.03688 40912 ft 457 kts 143°
2026-04-13 22:54 6.15610 -53.99606 40914 ft 456 kts 143°
2026-04-13 22:54 6.10731 -53.95529 40909 ft 456 kts 143°
2026-04-13 22:55 6.05852 -53.91453 40912 ft 456 kts 143°
2026-04-13 22:55 6.00976 -53.87380 40912 ft 456 kts 143°
2026-04-13 22:56 5.96076 -53.83289 40276 ft 462 kts 142°
2026-04-13 22:56 5.93609 -53.81230 39656 ft 460 kts 142°
2026-04-13 22:56 5.91151 -53.79177 39027 ft 459 kts 142°
2026-04-13 22:56 5.88698 -53.77128 38313 ft 460 kts 142°
2026-04-13 22:57 5.86250 -53.75085 37648 ft 457 kts 142°
2026-04-13 22:57 5.83808 -53.73046 36927 ft 457 kts 142°
2026-04-13 22:57 5.81369 -53.71011 36226 ft 456 kts 142°
2026-04-13 22:57 5.78938 -53.68984 35483 ft 456 kts 142°
2026-04-13 22:58 5.76498 -53.66948 34682 ft 457 kts 142°
2026-04-13 22:58 5.74052 -53.64908 33823 ft 460 kts 142°
2026-04-13 22:58 5.71583 -53.62849 32850 ft 462 kts 142°
2026-04-13 22:58 5.69112 -53.60789 31920 ft 463 kts 142°
2026-04-13 22:59 5.66667 -53.58751 30976 ft 464 kts 142°
2026-04-13 22:59 5.64184 -53.56679 30171 ft 463 kts 141°
2026-04-13 22:59 5.61713 -53.54618 29333 ft 460 kts 141°
2026-04-13 22:59 5.59274 -53.52584 28574 ft 454 kts 141°
2026-04-13 23:00 5.56864 -53.50575 27844 ft 449 kts 141°
2026-04-13 23:00 5.54479 -53.48587 27140 ft 444 kts 141°
2026-04-13 23:00 5.52118 -53.46619 26449 ft 439 kts 141°
2026-04-13 23:00 5.49774 -53.44667 25756 ft 436 kts 141°
2026-04-13 23:01 5.47451 -53.42731 25050 ft 433 kts 141°
2026-04-13 23:01 5.45140 -53.40806 24352 ft 431 kts 141°
2026-04-13 23:01 5.42840 -53.38891 23649 ft 429 kts 141°
2026-04-13 23:01 5.40552 -53.36984 22852 ft 427 kts 141°
2026-04-13 23:02 5.38278 -53.35091 22122 ft 423 kts 141°
2026-04-13 23:02 5.36023 -53.33214 21421 ft 419 kts 141°
2026-04-13 23:02 5.33792 -53.31356 20738 ft 415 kts 141°
2026-04-13 23:02 5.31574 -53.29509 20043 ft 413 kts 141°
2026-04-13 23:03 5.29368 -53.27673 19360 ft 411 kts 140°
2026-04-13 23:03 5.27175 -53.25847 18677 ft 409 kts 140°
2026-04-13 23:03 5.24993 -53.24030 17962 ft 407 kts 140°
2026-04-13 23:03 5.22826 -53.22227 17222 ft 404 kts 140°
2026-04-13 23:04 5.20677 -53.20438 16544 ft 399 kts 139°
2026-04-13 23:04 5.18557 -53.18676 15892 ft 394 kts 139°
2026-04-13 23:04 5.16605 -53.16794 15276 ft 386 kts 127°
2026-04-13 23:04 5.15037 -53.14646 14743 ft 378 kts 123°
2026-04-13 23:05 5.13577 -53.12521 14148 ft 374 kts 123°
2026-04-13 23:05 5.12122 -53.10383 13502 ft 370 kts 123°
2026-04-13 23:05 5.10673 -53.08267 12833 ft 365 kts 123°
2026-04-13 23:05 5.09234 -53.06186 12194 ft 361 kts 123°
2026-04-13 23:06 5.07807 -53.04139 11587 ft 356 kts 123°
2026-04-13 23:06 5.06393 -53.02122 10996 ft 351 kts 124°
2026-04-13 23:06 5.04994 -53.00132 10472 ft 346 kts 124°
2026-04-13 23:06 5.03645 -52.98220 10336 ft 328 kts 124°
2026-04-13 23:07 5.02356 -52.96394 10185 ft 314 kts 124°
2026-04-13 23:07 5.01125 -52.94652 10052 ft 301 kts 124°
2026-04-13 23:07 4.99943 -52.92978 9925 ft 289 kts 124°
2026-04-13 23:07 4.98790 -52.91344 9556 ft 286 kts 124°
2026-04-13 23:08 4.97645 -52.89722 9187 ft 284 kts 123°
2026-04-13 23:08 4.96514 -52.88120 8831 ft 281 kts 123°
2026-04-13 23:08 4.95392 -52.86530 8489 ft 278 kts 123°
2026-04-13 23:08 4.94279 -52.84954 8129 ft 276 kts 123°
2026-04-13 23:09 4.93178 -52.83395 7789 ft 274 kts 123°
2026-04-13 23:09 4.92081 -52.81841 7440 ft 272 kts 123°
2026-04-13 23:09 4.90992 -52.80300 7104 ft 270 kts 123°
2026-04-13 23:09 4.89910 -52.78768 6757 ft 269 kts 123°
2026-04-13 23:10 4.88835 -52.77246 6426 ft 267 kts 123°
2026-04-13 23:10 4.87762 -52.75727 6070 ft 266 kts 123°
2026-04-13 23:10 4.86698 -52.74221 5725 ft 264 kts 123°
2026-04-13 23:10 4.85642 -52.72727 5397 ft 261 kts 123°
2026-04-13 23:11 4.84602 -52.71256 5085 ft 258 kts 122°
2026-04-13 23:11 4.83568 -52.69794 4773 ft 256 kts 122°
2026-04-13 23:11 4.82545 -52.68346 4449 ft 255 kts 122°
2026-04-13 23:11 4.81534 -52.66914 4301 ft 247 kts 122°
2026-04-13 23:12 4.80562 -52.65539 4169 ft 238 kts 122°
2026-04-13 23:12 4.79628 -52.64217 4084 ft 225 kts 122°
2026-04-13 23:12 4.78754 -52.62984 3973 ft 210 kts 122°
2026-04-13 23:12 4.77935 -52.61826 3867 ft 197 kts 121°
2026-04-13 23:13 4.77169 -52.60744 3800 ft 184 kts 121°
2026-04-13 23:13 4.76453 -52.59733 3719 ft 172 kts 121°
2026-04-13 23:13 4.75767 -52.58762 3668 ft 172 kts 121°
2026-04-13 23:13 4.75083 -52.57792 3604 ft 167 kts 120°
2026-04-13 23:14 4.74430 -52.56871 3548 ft 156 kts 120°
2026-04-13 23:14 4.73828 -52.55998 3459 ft 149 kts 114°
2026-04-13 23:14 4.73757 -52.55036 3334 ft 142 kts 65°
2026-04-13 23:14 4.74137 -52.54122 3248 ft 140 kts 71°
2026-04-13 23:15 4.74408 -52.53245 3213 ft 126 kts 72°
2026-04-13 23:15 4.74677 -52.52394 3080 ft 127 kts 70°
2026-04-13 23:15 4.74982 -52.51578 2927 ft 124 kts 67°
2026-04-13 23:15 4.75308 -52.50797 2765 ft 120 kts 66°
2026-04-13 23:16 4.75640 -52.50039 2628 ft 118 kts 65°
2026-04-13 23:16 4.75983 -52.49273 2485 ft 124 kts 65°
2026-04-13 23:16 4.76339 -52.48489 2321 ft 123 kts 64°
2026-04-13 23:16 4.76681 -52.47741 2158 ft 118 kts 64°
2026-04-13 23:17 4.77025 -52.46988 2008 ft 120 kts 64°
2026-04-13 23:17 4.77375 -52.46224 1861 ft 122 kts 65°
2026-04-13 23:17 4.77729 -52.45449 1693 ft 121 kts 64°
2026-04-13 23:17 4.78079 -52.44685 1537 ft 122 kts 64°
2026-04-13 23:18 4.78437 -52.43907 1377 ft 124 kts 65°
2026-04-13 23:18 4.78789 -52.43124 1213 ft 122 kts 65°
2026-04-13 23:18 4.79146 -52.42349 1042 ft 124 kts 65°
2026-04-13 23:18 4.79510 -52.41555 902 ft 127 kts 65°
2026-04-13 23:19 4.79880 -52.40747 725 ft 128 kts 64°
2026-04-13 23:19 4.80249 -52.39935 598 ft 128 kts 65°
2026-04-13 23:19 4.80623 -52.39121 415 ft 129 kts 62°
2026-04-13 23:19 4.80997 -52.38304 257 ft 128 kts 65°
2026-04-13 23:20 4.81356 -52.37500 87 ft 125 kts 65°
2026-04-13 23:20 4.81701 -52.36749 27 ft 102 kts 67°
2026-04-13 23:20 4.81910 -52.36299 27 ft 40 kts 64°
2026-04-13 23:20 4.82009 -52.36231 28 ft 16 kts 341°
2026-04-13 23:21 4.82108 -52.36274 28 ft 15 kts 337°
2026-04-13 23:21 4.82176 -52.36302 29 ft 1 kts 336°
2026-04-13 23:21 4.82176 -52.36303 29 ft 0 kts 336°